Year,Month,Day,Hour,Minute,Value (Times are PST for temperature in C)
2007,07,11,00,00,26.70
2007,07,11,00,01,26.70
2007,07,11,00,02,26.70
2007,07,11,00,03,26.70
2007,07,11,00,04,26.70
2007,07,11,00,05,26.60
2007,07,11,00,06,26.60
2007,07,11,00,07,26.60
2007,07,11,00,08,26.60
2007,07,11,00,09,26.50
2007,07,11,00,10,26.50
2007,07,11,00,11,26.50
2007,07,11,00,12,26.50
2007,07,11,00,13,26.50
2007,07,11,00,14,26.40
2007,07,11,00,15,26.40
2007,07,11,00,16,26.40
2007,07,11,00,17,26.40
2007,07,11,00,18,26.40
2007,07,11,00,19,26.40
2007,07,11,00,20,26.40
2007,07,11,00,21,26.40
2007,07,11,00,22,26.30
2007,07,11,00,23,26.30
2007,07,11,00,24,26.30
2007,07,11,00,25,26.30
2007,07,11,00,26,26.20
2007,07,11,00,27,26.20
2007,07,11,00,28,26.20
2007,07,11,00,29,26.20
2007,07,11,00,30,26.20
2007,07,11,00,31,26.20
2007,07,11,00,32,26.10
2007,07,11,00,33,26.10
2007,07,11,00,34,26.10
2007,07,11,00,35,26.10
2007,07,11,00,36,26.00
2007,07,11,00,37,26.00
2007,07,11,00,38,26.00
2007,07,11,00,39,26.00
2007,07,11,00,40,25.90
2007,07,11,00,41,25.90
2007,07,11,00,42,25.90
2007,07,11,00,43,25.90
2007,07,11,00,44,25.90
2007,07,11,00,45,25.90
2007,07,11,00,46,25.90
2007,07,11,00,47,25.90
2007,07,11,00,48,25.90
2007,07,11,00,49,25.80
2007,07,11,00,50,25.80
2007,07,11,00,51,25.80
2007,07,11,00,52,25.70
2007,07,11,00,53,25.70
2007,07,11,00,54,25.70
2007,07,11,00,55,25.60
2007,07,11,00,56,25.60
2007,07,11,00,57,25.60
2007,07,11,00,58,25.50
2007,07,11,00,59,25.50
2007,07,11,01,00,25.50
2007,07,11,01,01,25.50
2007,07,11,01,02,25.50
2007,07,11,01,03,25.50
2007,07,11,01,04,25.40
2007,07,11,01,05,25.40
2007,07,11,01,06,25.40
2007,07,11,01,07,25.40
2007,07,11,01,08,25.40
2007,07,11,01,09,25.40
2007,07,11,01,10,25.40
2007,07,11,01,11,25.40
2007,07,11,01,12,25.40
2007,07,11,01,13,25.40
2007,07,11,01,14,25.40
2007,07,11,01,15,25.40
2007,07,11,01,16,25.40
2007,07,11,01,17,25.40
2007,07,11,01,18,25.40
2007,07,11,01,19,25.40
2007,07,11,01,20,25.30
2007,07,11,01,21,25.30
2007,07,11,01,22,25.30
2007,07,11,01,23,25.30
2007,07,11,01,24,25.30
2007,07,11,01,25,25.30
2007,07,11,01,26,25.20
2007,07,11,01,27,25.20
2007,07,11,01,28,25.20
2007,07,11,01,29,25.20
2007,07,11,01,30,25.10
2007,07,11,01,31,25.10
2007,07,11,01,32,25.10
2007,07,11,01,33,25.10
2007,07,11,01,34,25.10
2007,07,11,01,35,25.10
2007,07,11,01,36,25.10
2007,07,11,01,37,25.00
2007,07,11,01,38,25.00
2007,07,11,01,39,25.10
2007,07,11,01,40,25.10
2007,07,11,01,41,25.10
2007,07,11,01,42,25.10
2007,07,11,01,43,25.10
2007,07,11,01,44,25.10
2007,07,11,01,45,25.00
2007,07,11,01,46,25.00
2007,07,11,01,47,24.90
2007,07,11,01,48,24.90
2007,07,11,01,49,24.90
2007,07,11,01,50,24.90
2007,07,11,01,51,24.80
2007,07,11,01,52,24.80
2007,07,11,01,53,24.80
2007,07,11,01,54,24.80
2007,07,11,01,55,24.70
2007,07,11,01,56,24.70
2007,07,11,01,57,24.70
2007,07,11,01,58,24.70
2007,07,11,01,59,24.70
2007,07,11,02,00,24.70
2007,07,11,02,01,24.60
2007,07,11,02,02,24.60
2007,07,11,02,03,24.60
2007,07,11,02,04,24.60
2007,07,11,02,05,24.60
2007,07,11,02,06,24.60
2007,07,11,02,07,24.60
2007,07,11,02,08,24.60
2007,07,11,02,09,24.70
2007,07,11,02,10,24.70
2007,07,11,02,11,24.70
2007,07,11,02,12,24.70
2007,07,11,02,13,24.70
2007,07,11,02,14,24.70
2007,07,11,02,15,24.70
2007,07,11,02,16,24.70
2007,07,11,02,17,24.70
2007,07,11,02,18,24.60
2007,07,11,02,19,24.60
2007,07,11,02,20,24.60
2007,07,11,02,21,24.60
2007,07,11,02,22,24.60
2007,07,11,02,23,24.60
2007,07,11,02,24,24.60
2007,07,11,02,25,24.60
2007,07,11,02,26,24.60
2007,07,11,02,27,24.60
2007,07,11,02,28,24.60
2007,07,11,02,29,24.60
2007,07,11,02,30,24.60
2007,07,11,02,31,24.60
2007,07,11,02,32,24.60
2007,07,11,02,33,24.60
2007,07,11,02,34,24.60
2007,07,11,02,35,24.60
2007,07,11,02,36,24.60
2007,07,11,02,37,24.50
2007,07,11,02,38,24.50
2007,07,11,02,39,24.50
2007,07,11,02,40,24.40
2007,07,11,02,41,24.40
2007,07,11,02,42,24.40
2007,07,11,02,43,24.30
2007,07,11,02,44,24.30
2007,07,11,02,45,24.30
2007,07,11,02,46,24.20
2007,07,11,02,47,24.20
2007,07,11,02,48,24.20
2007,07,11,02,49,24.10
2007,07,11,02,50,24.10
2007,07,11,02,51,24.10
2007,07,11,02,52,24.10
2007,07,11,02,53,24.00
2007,07,11,02,54,24.00
2007,07,11,02,55,23.90
2007,07,11,02,56,23.90
2007,07,11,02,57,23.90
2007,07,11,02,58,23.80
2007,07,11,02,59,23.80
2007,07,11,03,00,23.80
2007,07,11,03,01,23.80
2007,07,11,03,02,23.80
2007,07,11,03,03,23.70
2007,07,11,03,04,23.70
2007,07,11,03,05,23.70
2007,07,11,03,06,23.70
2007,07,11,03,07,23.70
2007,07,11,03,08,23.70
2007,07,11,03,09,23.80
2007,07,11,03,10,23.80
2007,07,11,03,11,23.80
2007,07,11,03,12,23.70
2007,07,11,03,13,23.70
2007,07,11,03,14,23.70
2007,07,11,03,15,23.70
2007,07,11,03,16,23.60
2007,07,11,03,17,23.60
2007,07,11,03,18,23.50
2007,07,11,03,19,23.50
2007,07,11,03,20,23.50
2007,07,11,03,21,23.40
2007,07,11,03,22,23.40
2007,07,11,03,23,23.40
2007,07,11,03,24,23.40
2007,07,11,03,25,23.40
2007,07,11,03,26,23.40
2007,07,11,03,27,23.30
2007,07,11,03,28,23.30
2007,07,11,03,29,23.40
2007,07,11,03,30,23.40
2007,07,11,03,31,23.40
2007,07,11,03,32,23.40
2007,07,11,03,33,23.40
2007,07,11,03,34,23.40
2007,07,11,03,35,23.40
2007,07,11,03,36,23.40
2007,07,11,03,37,23.40
2007,07,11,03,38,23.40
2007,07,11,03,39,23.40
2007,07,11,03,40,23.30
2007,07,11,03,41,23.30
2007,07,11,03,42,23.30
2007,07,11,03,43,23.20
2007,07,11,03,44,23.20
2007,07,11,03,45,23.20
2007,07,11,03,46,23.10
2007,07,11,03,47,23.10
2007,07,11,03,48,23.10
2007,07,11,03,49,23.10
2007,07,11,03,50,23.00
2007,07,11,03,51,23.00
2007,07,11,03,52,23.00
2007,07,11,03,53,22.90
2007,07,11,03,54,22.90
2007,07,11,03,55,22.90
2007,07,11,03,56,22.90
2007,07,11,03,57,22.80
2007,07,11,03,58,22.80
2007,07,11,03,59,22.80
2007,07,11,04,00,22.80
2007,07,11,04,01,22.80
2007,07,11,04,02,22.80
2007,07,11,04,03,22.80
2007,07,11,04,04,22.80
2007,07,11,04,05,22.80
2007,07,11,04,06,22.70
2007,07,11,04,07,22.70
2007,07,11,04,08,22.70
2007,07,11,04,09,22.70
2007,07,11,04,10,22.70
2007,07,11,04,11,22.70
2007,07,11,04,12,22.60
2007,07,11,04,13,22.60
2007,07,11,04,14,22.60
2007,07,11,04,15,22.60
2007,07,11,04,16,22.60
2007,07,11,04,17,22.60
2007,07,11,04,18,22.50
2007,07,11,04,19,22.50
2007,07,11,04,20,22.50
2007,07,11,04,21,22.50
2007,07,11,04,22,22.50
2007,07,11,04,23,22.50
2007,07,11,04,24,22.60
2007,07,11,04,25,22.60
2007,07,11,04,26,22.60
2007,07,11,04,27,22.60
2007,07,11,04,28,22.60
2007,07,11,04,29,22.60
2007,07,11,04,30,22.60
2007,07,11,04,31,22.60
2007,07,11,04,32,22.60
2007,07,11,04,33,22.60
2007,07,11,04,34,22.50
2007,07,11,04,35,22.50
2007,07,11,04,36,22.50
2007,07,11,04,37,22.50
2007,07,11,04,38,22.50
2007,07,11,04,39,22.50
2007,07,11,04,40,22.50
2007,07,11,04,41,22.50
2007,07,11,04,42,22.50
2007,07,11,04,43,22.50
2007,07,11,04,44,22.50
2007,07,11,04,45,22.40
2007,07,11,04,46,22.40
2007,07,11,04,47,22.40
2007,07,11,04,48,22.40
2007,07,11,04,49,22.40
2007,07,11,04,50,22.40
2007,07,11,04,51,22.40
2007,07,11,04,52,22.40
2007,07,11,04,53,22.40
2007,07,11,04,54,22.40
2007,07,11,04,55,22.40
2007,07,11,04,56,22.40
2007,07,11,04,57,22.40
2007,07,11,04,58,22.40
2007,07,11,04,59,22.40
2007,07,11,05,00,22.40
2007,07,11,05,01,22.40
2007,07,11,05,02,22.40
2007,07,11,05,03,22.40
2007,07,11,05,04,22.40
2007,07,11,05,05,22.50
2007,07,11,05,06,22.50
2007,07,11,05,07,22.50
2007,07,11,05,08,22.50
2007,07,11,05,09,22.50
2007,07,11,05,10,22.50
2007,07,11,05,11,22.40
2007,07,11,05,12,22.40
2007,07,11,05,13,22.40
2007,07,11,05,14,22.30
2007,07,11,05,15,22.30
2007,07,11,05,16,22.30
2007,07,11,05,17,22.30
2007,07,11,05,18,22.20
2007,07,11,05,19,22.20
2007,07,11,05,20,22.20
2007,07,11,05,21,22.20
2007,07,11,05,22,22.20
2007,07,11,05,23,22.20
2007,07,11,05,24,22.20
2007,07,11,05,25,22.20
2007,07,11,05,26,22.20
2007,07,11,05,27,22.20
2007,07,11,05,28,22.20
2007,07,11,05,29,22.20
2007,07,11,05,30,22.20
2007,07,11,05,31,22.10
2007,07,11,05,32,22.10
2007,07,11,05,33,22.10
2007,07,11,05,34,22.10
2007,07,11,05,35,22.10
2007,07,11,05,36,22.00
2007,07,11,05,37,22.00
2007,07,11,05,38,22.00
2007,07,11,05,39,22.00
2007,07,11,05,40,21.90
2007,07,11,05,41,21.90
2007,07,11,05,42,21.90
2007,07,11,05,43,22.00
2007,07,11,05,44,22.00
2007,07,11,05,45,22.00
2007,07,11,05,46,22.00
2007,07,11,05,47,22.00
2007,07,11,05,48,22.00
2007,07,11,05,49,22.00
2007,07,11,05,50,22.00
2007,07,11,05,51,22.00
2007,07,11,05,52,21.90
2007,07,11,05,53,21.90
2007,07,11,05,54,21.90
2007,07,11,05,55,21.90
2007,07,11,05,56,21.90
2007,07,11,05,57,21.90
2007,07,11,05,58,21.90
2007,07,11,05,59,21.90
2007,07,11,06,00,21.90
2007,07,11,06,01,21.90
2007,07,11,06,02,21.80
2007,07,11,06,03,21.80
2007,07,11,06,04,21.80
2007,07,11,06,05,21.80
2007,07,11,06,06,21.80
2007,07,11,06,07,21.80
2007,07,11,06,08,21.80
2007,07,11,06,09,21.80
2007,07,11,06,10,21.90
2007,07,11,06,11,21.90
2007,07,11,06,12,21.90
2007,07,11,06,13,21.90
2007,07,11,06,14,22.00
2007,07,11,06,15,21.90
2007,07,11,06,16,22.00
2007,07,11,06,17,22.00
2007,07,11,06,18,22.00
2007,07,11,06,19,22.00
2007,07,11,06,20,22.00
2007,07,11,06,21,22.00
2007,07,11,06,22,22.00
2007,07,11,06,23,22.00
2007,07,11,06,24,21.90
2007,07,11,06,25,21.90
2007,07,11,06,26,21.90
2007,07,11,06,27,21.90
2007,07,11,06,28,21.90
2007,07,11,06,29,21.90
2007,07,11,06,30,21.90
2007,07,11,06,31,21.90
2007,07,11,06,32,21.90
2007,07,11,06,33,21.90
2007,07,11,06,34,21.90
2007,07,11,06,35,21.90
2007,07,11,06,36,21.90
2007,07,11,06,37,21.90
2007,07,11,06,38,21.90
2007,07,11,06,39,21.90
2007,07,11,06,40,21.90
2007,07,11,06,41,21.90
2007,07,11,06,42,22.00
2007,07,11,06,43,22.00
2007,07,11,06,44,22.00
2007,07,11,06,45,22.00
2007,07,11,06,46,22.00
2007,07,11,06,47,22.00
2007,07,11,06,48,22.00
2007,07,11,06,49,22.00
2007,07,11,06,50,22.10
2007,07,11,06,51,22.10
2007,07,11,06,52,22.10
2007,07,11,06,53,22.10
2007,07,11,06,54,22.10
2007,07,11,06,55,22.10
2007,07,11,06,56,22.10
2007,07,11,06,57,22.10
2007,07,11,06,58,22.10
2007,07,11,06,59,22.20
2007,07,11,07,00,22.20
2007,07,11,07,01,22.20
2007,07,11,07,02,22.20
2007,07,11,07,03,22.20
2007,07,11,07,04,22.20
2007,07,11,07,05,22.30
2007,07,11,07,06,22.30
2007,07,11,07,07,22.30
2007,07,11,07,08,22.30
2007,07,11,07,09,22.30
2007,07,11,07,10,22.30
2007,07,11,07,11,22.30
2007,07,11,07,12,22.30
2007,07,11,07,13,22.30
2007,07,11,07,14,22.30
2007,07,11,07,15,22.30
2007,07,11,07,16,22.30
2007,07,11,07,17,22.30
2007,07,11,07,18,22.30
2007,07,11,07,19,22.30
2007,07,11,07,20,22.30
2007,07,11,07,21,22.40
2007,07,11,07,22,22.40
2007,07,11,07,23,22.40
2007,07,11,07,24,22.40
2007,07,11,07,25,22.50
2007,07,11,07,26,22.50
2007,07,11,07,27,22.50
2007,07,11,07,28,22.60
2007,07,11,07,29,22.60
2007,07,11,07,30,22.60
2007,07,11,07,31,22.70
2007,07,11,07,32,22.70
2007,07,11,07,33,22.70
2007,07,11,07,34,22.70
2007,07,11,07,35,22.70
2007,07,11,07,36,22.70
2007,07,11,07,37,22.80
2007,07,11,07,38,22.80
2007,07,11,07,39,22.80
2007,07,11,07,40,22.90
2007,07,11,07,41,22.90
2007,07,11,07,42,22.90
2007,07,11,07,43,23.00
2007,07,11,07,44,23.00
2007,07,11,07,45,23.10
2007,07,11,07,46,23.10
2007,07,11,07,47,23.10
2007,07,11,07,48,23.10
2007,07,11,07,49,23.10
2007,07,11,07,50,23.20
2007,07,11,07,51,23.20
2007,07,11,07,52,23.20
2007,07,11,07,53,23.20
2007,07,11,07,54,23.30
2007,07,11,07,55,23.30
2007,07,11,07,56,23.30
2007,07,11,07,57,23.30
2007,07,11,07,58,23.30
2007,07,11,07,59,23.30
2007,07,11,08,00,23.30
2007,07,11,08,01,23.30
2007,07,11,08,02,23.20
2007,07,11,08,03,23.20
2007,07,11,08,04,23.20
2007,07,11,08,05,23.20
2007,07,11,08,06,23.20
2007,07,11,08,07,23.30
2007,07,11,08,08,23.30
2007,07,11,08,09,23.30
2007,07,11,08,10,23.30
2007,07,11,08,11,23.40
2007,07,11,08,12,23.40
2007,07,11,08,13,23.40
2007,07,11,08,14,23.40
2007,07,11,08,15,23.40
2007,07,11,08,16,23.40
2007,07,11,08,17,23.40
2007,07,11,08,18,23.40
2007,07,11,08,19,23.40
2007,07,11,08,20,23.50
2007,07,11,08,21,23.50
2007,07,11,08,22,23.50
2007,07,11,08,23,23.50
2007,07,11,08,24,23.50
2007,07,11,08,25,23.50
2007,07,11,08,26,23.50
2007,07,11,08,27,23.50
2007,07,11,08,28,23.60
2007,07,11,08,29,23.60
2007,07,11,08,30,23.60
2007,07,11,08,31,23.60
2007,07,11,08,32,23.70
2007,07,11,08,33,23.70
2007,07,11,08,34,23.70
2007,07,11,08,35,23.70
2007,07,11,08,36,23.70
2007,07,11,08,37,23.70
2007,07,11,08,38,23.70
2007,07,11,08,39,23.70
2007,07,11,08,40,23.70
2007,07,11,08,41,23.80
2007,07,11,08,42,23.80
2007,07,11,08,43,23.90
2007,07,11,08,44,23.90
2007,07,11,08,45,24.00
2007,07,11,08,46,24.00
2007,07,11,08,47,24.10
2007,07,11,08,48,24.10
2007,07,11,08,49,24.10
2007,07,11,08,50,24.10
2007,07,11,08,51,24.10
2007,07,11,08,52,24.10
2007,07,11,08,53,24.20
2007,07,11,08,54,24.20
2007,07,11,08,55,24.20
2007,07,11,08,56,24.20
2007,07,11,08,57,24.20
2007,07,11,08,58,24.20
2007,07,11,08,59,24.20
2007,07,11,09,00,24.20
2007,07,11,09,01,24.30
2007,07,11,09,02,24.30
2007,07,11,09,03,24.30
2007,07,11,09,04,24.30
2007,07,11,09,05,24.40
2007,07,11,09,06,24.40
2007,07,11,09,07,24.50
2007,07,11,09,08,24.50
2007,07,11,09,09,24.60
2007,07,11,09,10,24.60
2007,07,11,09,11,24.60
2007,07,11,09,12,24.70
2007,07,11,09,13,24.70
2007,07,11,09,14,24.70
2007,07,11,09,15,24.70
2007,07,11,09,16,24.70
2007,07,11,09,17,24.70
2007,07,11,09,18,24.70
2007,07,11,09,19,24.70
2007,07,11,09,20,24.60
2007,07,11,09,21,24.70
2007,07,11,09,22,24.70
2007,07,11,09,23,24.70
2007,07,11,09,24,24.70
2007,07,11,09,25,24.70
2007,07,11,09,26,24.70
2007,07,11,09,27,24.70
2007,07,11,09,28,24.70
2007,07,11,09,29,24.70
2007,07,11,09,30,24.80
2007,07,11,09,31,24.80
2007,07,11,09,32,24.80
2007,07,11,09,33,24.80
2007,07,11,09,34,24.90
2007,07,11,09,35,24.90
2007,07,11,09,36,24.90
2007,07,11,09,37,25.00
2007,07,11,09,38,25.00
2007,07,11,09,39,25.10
2007,07,11,09,40,25.10
2007,07,11,09,41,25.10
2007,07,11,09,42,25.20
2007,07,11,09,43,25.20
2007,07,11,09,44,25.20
2007,07,11,09,45,25.30
2007,07,11,09,46,25.30
2007,07,11,09,47,25.30
2007,07,11,09,48,25.30
2007,07,11,09,49,25.40
2007,07,11,09,50,25.40
2007,07,11,09,51,25.50
2007,07,11,09,52,25.60
2007,07,11,09,53,25.60
2007,07,11,09,54,25.60
2007,07,11,09,55,25.60
2007,07,11,09,56,25.70
2007,07,11,09,57,25.70
2007,07,11,09,58,25.70
2007,07,11,09,59,25.70
2007,07,11,10,00,25.80
2007,07,11,10,01,25.80
2007,07,11,10,02,25.80
2007,07,11,10,03,25.80
2007,07,11,10,04,25.80
2007,07,11,10,05,25.80
2007,07,11,10,06,25.80
2007,07,11,10,07,25.80
2007,07,11,10,08,25.80
2007,07,11,10,09,25.90
2007,07,11,10,10,25.90
2007,07,11,10,11,25.90
2007,07,11,10,12,26.00
2007,07,11,10,13,26.00
2007,07,11,10,14,26.00
2007,07,11,10,15,26.00
2007,07,11,10,16,26.00
2007,07,11,10,17,26.00
2007,07,11,10,18,26.10
2007,07,11,10,19,26.10
2007,07,11,10,20,26.10
2007,07,11,10,21,26.20
2007,07,11,10,22,26.20
2007,07,11,10,23,26.20
2007,07,11,10,24,26.30
2007,07,11,10,25,26.30
2007,07,11,10,26,26.40
2007,07,11,10,27,26.50
2007,07,11,10,28,26.60
2007,07,11,10,29,26.60
2007,07,11,10,30,26.70
2007,07,11,10,31,26.80
2007,07,11,10,32,26.80
2007,07,11,10,33,26.90
2007,07,11,10,34,26.90
2007,07,11,10,35,27.00
2007,07,11,10,36,27.00
2007,07,11,10,37,27.10
2007,07,11,10,38,27.10
2007,07,11,10,39,27.10
2007,07,11,10,40,27.20
2007,07,11,10,41,27.20
2007,07,11,10,42,27.20
2007,07,11,10,43,27.30
2007,07,11,10,44,27.40
2007,07,11,10,45,27.50
2007,07,11,10,46,27.60
2007,07,11,10,47,27.60
2007,07,11,10,48,27.80
2007,07,11,10,49,27.80
2007,07,11,10,50,27.80
2007,07,11,10,51,27.90
2007,07,11,10,52,27.90
2007,07,11,10,53,27.90
2007,07,11,10,54,28.00
2007,07,11,10,55,28.00
2007,07,11,10,56,28.10
2007,07,11,10,57,28.10
2007,07,11,10,58,28.20
2007,07,11,10,59,28.20
2007,07,11,11,00,28.30
2007,07,11,11,01,28.30
2007,07,11,11,02,28.30
2007,07,11,11,03,28.30
2007,07,11,11,04,28.30
2007,07,11,11,05,28.30
2007,07,11,11,06,28.40
2007,07,11,11,07,28.50
2007,07,11,11,08,28.50
2007,07,11,11,09,28.50
2007,07,11,11,10,28.60
2007,07,11,11,11,28.60
2007,07,11,11,12,28.60
2007,07,11,11,13,28.60
2007,07,11,11,14,28.60
2007,07,11,11,15,28.70
2007,07,11,11,16,28.70
2007,07,11,11,17,28.70
2007,07,11,11,18,28.70
2007,07,11,11,19,28.70
2007,07,11,11,20,28.80
2007,07,11,11,21,28.80
2007,07,11,11,22,28.90
2007,07,11,11,23,28.90
2007,07,11,11,24,29.00
2007,07,11,11,25,29.00
2007,07,11,11,26,29.10
2007,07,11,11,27,29.10
2007,07,11,11,28,29.10
2007,07,11,11,29,29.10
2007,07,11,11,30,29.10
2007,07,11,11,31,29.10
2007,07,11,11,32,29.20
2007,07,11,11,33,29.20
2007,07,11,11,34,29.30
2007,07,11,11,35,29.30
2007,07,11,11,36,29.30
2007,07,11,11,37,29.30
2007,07,11,11,38,29.30
2007,07,11,11,39,29.30
2007,07,11,11,40,29.30
2007,07,11,11,41,29.30
2007,07,11,11,42,29.30
2007,07,11,11,43,29.30
2007,07,11,11,44,29.30
2007,07,11,11,45,29.40
2007,07,11,11,46,29.40
2007,07,11,11,47,29.50
2007,07,11,11,48,29.50
2007,07,11,11,49,29.60
2007,07,11,11,50,29.70
2007,07,11,11,51,29.80
2007,07,11,11,52,29.80
2007,07,11,11,53,29.80
2007,07,11,11,54,29.90
2007,07,11,11,55,30.00
2007,07,11,11,56,30.00
2007,07,11,11,57,30.10
2007,07,11,11,58,30.10
2007,07,11,11,59,30.10
2007,07,11,12,00,30.10
2007,07,11,12,01,30.20
2007,07,11,12,02,30.20
2007,07,11,12,03,30.10
2007,07,11,12,04,30.10
2007,07,11,12,05,30.00
2007,07,11,12,06,29.90
2007,07,11,12,07,29.90
2007,07,11,12,08,30.00
2007,07,11,12,09,30.00
2007,07,11,12,10,30.00
2007,07,11,12,11,30.00
2007,07,11,12,12,30.00
2007,07,11,12,13,30.00
2007,07,11,12,14,30.10
2007,07,11,12,15,30.10
2007,07,11,12,16,30.20
2007,07,11,12,17,30.20
2007,07,11,12,18,30.40
2007,07,11,12,19,30.50
2007,07,11,12,20,30.50
2007,07,11,12,21,30.50
2007,07,11,12,22,30.50
2007,07,11,12,23,30.40
2007,07,11,12,24,30.50
2007,07,11,12,25,30.60
2007,07,11,12,26,30.60
2007,07,11,12,27,30.60
2007,07,11,12,28,30.60
2007,07,11,12,29,30.60
2007,07,11,12,30,30.60
2007,07,11,12,31,30.60
2007,07,11,12,32,30.60
2007,07,11,12,33,30.70
2007,07,11,12,34,30.70
2007,07,11,12,35,30.60
2007,07,11,12,36,30.60
2007,07,11,12,37,30.60
2007,07,11,12,38,30.60
2007,07,11,12,39,30.60
2007,07,11,12,40,30.60
2007,07,11,12,41,30.60
2007,07,11,12,42,30.60
2007,07,11,12,43,30.80
2007,07,11,12,44,30.80
2007,07,11,12,45,30.80
2007,07,11,12,46,30.80
2007,07,11,12,47,30.80
2007,07,11,12,48,30.80
2007,07,11,12,49,30.90
2007,07,11,12,50,31.00
2007,07,11,12,51,31.10
2007,07,11,12,52,31.20
2007,07,11,12,53,31.20
2007,07,11,12,54,31.20
2007,07,11,12,55,31.20
2007,07,11,12,56,31.30
2007,07,11,12,57,31.40
2007,07,11,12,58,31.50
2007,07,11,12,59,31.50
2007,07,11,13,00,31.60
2007,07,11,13,01,31.50
2007,07,11,13,02,31.60
2007,07,11,13,03,31.50
2007,07,11,13,04,31.50
2007,07,11,13,05,31.40
2007,07,11,13,06,31.30
2007,07,11,13,07,31.30
2007,07,11,13,08,31.40
2007,07,11,13,09,31.40
2007,07,11,13,10,31.40
2007,07,11,13,11,31.30
2007,07,11,13,12,31.30
2007,07,11,13,13,31.30
2007,07,11,13,14,31.30
2007,07,11,13,15,31.30
2007,07,11,13,16,31.40
2007,07,11,13,17,31.50
2007,07,11,13,18,31.60
2007,07,11,13,19,31.60
2007,07,11,13,20,31.60
2007,07,11,13,21,31.60
2007,07,11,13,22,31.50
2007,07,11,13,23,31.40
2007,07,11,13,24,31.30
2007,07,11,13,25,31.30
2007,07,11,13,26,31.30
2007,07,11,13,27,31.40
2007,07,11,13,28,31.40
2007,07,11,13,29,31.40
2007,07,11,13,30,31.40
2007,07,11,13,31,31.50
2007,07,11,13,32,31.50
2007,07,11,13,33,31.60
2007,07,11,13,34,31.60
2007,07,11,13,35,31.60
2007,07,11,13,36,31.60
2007,07,11,13,37,31.70
2007,07,11,13,38,31.70
2007,07,11,13,39,31.70
2007,07,11,13,40,31.70
2007,07,11,13,41,31.70
2007,07,11,13,42,31.70
2007,07,11,13,43,31.70
2007,07,11,13,44,31.70
2007,07,11,13,45,31.70
2007,07,11,13,46,31.80
2007,07,11,13,47,31.80
2007,07,11,13,48,31.90
2007,07,11,13,49,31.90
2007,07,11,13,50,31.90
2007,07,11,13,51,31.90
2007,07,11,13,52,31.90
2007,07,11,13,53,32.00
2007,07,11,13,54,32.00
2007,07,11,13,55,32.00
2007,07,11,13,56,32.10
2007,07,11,13,57,32.10
2007,07,11,13,58,32.10
2007,07,11,13,59,32.10
2007,07,11,14,00,32.20
2007,07,11,14,01,32.20
2007,07,11,14,02,32.30
2007,07,11,14,03,32.30
2007,07,11,14,04,32.30
2007,07,11,14,05,32.40
2007,07,11,14,06,32.40
2007,07,11,14,07,32.50
2007,07,11,14,08,32.60
2007,07,11,14,09,32.60
2007,07,11,14,10,32.70
2007,07,11,14,11,32.70
2007,07,11,14,12,32.80
2007,07,11,14,13,32.90
2007,07,11,14,14,32.90
2007,07,11,14,15,33.00
2007,07,11,14,16,33.10
2007,07,11,14,17,33.10
2007,07,11,14,18,33.10
2007,07,11,14,19,33.10
2007,07,11,14,20,33.10
2007,07,11,14,21,33.00
2007,07,11,14,22,33.00
2007,07,11,14,23,33.00
2007,07,11,14,24,33.10
2007,07,11,14,25,33.10
2007,07,11,14,26,33.10
2007,07,11,14,27,33.10
2007,07,11,14,28,33.20
2007,07,11,14,29,33.20
2007,07,11,14,30,33.20
2007,07,11,14,31,33.20
2007,07,11,14,32,33.20
2007,07,11,14,33,33.20
2007,07,11,14,34,33.30
2007,07,11,14,35,33.30
2007,07,11,14,36,33.40
2007,07,11,14,37,33.40
2007,07,11,14,38,33.40
2007,07,11,14,39,33.40
2007,07,11,14,40,33.30
2007,07,11,14,41,33.30
2007,07,11,14,42,33.40
2007,07,11,14,43,33.40
2007,07,11,14,44,33.40
2007,07,11,14,45,33.40
2007,07,11,14,46,33.40
2007,07,11,14,47,33.40
2007,07,11,14,48,33.50
2007,07,11,14,49,33.50
2007,07,11,14,50,33.50
2007,07,11,14,51,33.50
2007,07,11,14,52,33.50
2007,07,11,14,53,33.40
2007,07,11,14,54,33.40
2007,07,11,14,55,33.40
2007,07,11,14,56,33.50
2007,07,11,14,57,33.50
2007,07,11,14,58,33.50
2007,07,11,14,59,33.40
2007,07,11,15,00,33.40
2007,07,11,15,01,33.40
2007,07,11,15,02,33.40
2007,07,11,15,03,33.40
2007,07,11,15,04,33.40
2007,07,11,15,05,33.40
2007,07,11,15,06,33.40
2007,07,11,15,07,33.40
2007,07,11,15,08,33.50
2007,07,11,15,09,33.60
2007,07,11,15,10,33.60
2007,07,11,15,11,33.70
2007,07,11,15,12,33.80
2007,07,11,15,13,33.80
2007,07,11,15,14,33.70
2007,07,11,15,15,33.70
2007,07,11,15,16,33.70
2007,07,11,15,17,33.70
2007,07,11,15,18,33.80
2007,07,11,15,19,33.80
2007,07,11,15,20,33.90
2007,07,11,15,21,33.90
2007,07,11,15,22,33.90
2007,07,11,15,23,33.90
2007,07,11,15,24,34.00
2007,07,11,15,25,34.00
2007,07,11,15,26,33.90
2007,07,11,15,27,34.00
2007,07,11,15,28,34.00
2007,07,11,15,29,34.00
2007,07,11,15,30,33.90
2007,07,11,15,31,33.90
2007,07,11,15,32,33.90
2007,07,11,15,33,33.90
2007,07,11,15,34,33.90
2007,07,11,15,35,34.00
2007,07,11,15,36,34.10
2007,07,11,15,37,34.00
2007,07,11,15,38,33.90
2007,07,11,15,39,33.80
2007,07,11,15,40,33.70
2007,07,11,15,41,33.70
2007,07,11,15,42,33.80
2007,07,11,15,43,33.80
2007,07,11,15,44,33.80
2007,07,11,15,45,33.80
2007,07,11,15,46,33.70
2007,07,11,15,47,33.70
2007,07,11,15,48,33.80
2007,07,11,15,49,33.80
2007,07,11,15,50,33.80
2007,07,11,15,51,33.80
2007,07,11,15,52,33.70
2007,07,11,15,53,33.70
2007,07,11,15,54,33.70
2007,07,11,15,55,33.70
2007,07,11,15,56,33.70
2007,07,11,15,57,33.70
2007,07,11,15,58,33.70
2007,07,11,15,59,33.70
2007,07,11,16,00,33.70
2007,07,11,16,01,33.70
2007,07,11,16,02,33.70
2007,07,11,16,03,33.70
2007,07,11,16,04,33.70
2007,07,11,16,05,33.70
2007,07,11,16,06,33.70
2007,07,11,16,07,33.70
2007,07,11,16,08,33.70
2007,07,11,16,09,33.60
2007,07,11,16,10,33.60
2007,07,11,16,11,33.60
2007,07,11,16,12,33.60
2007,07,11,16,13,33.60
2007,07,11,16,14,33.60
2007,07,11,16,15,33.60
2007,07,11,16,16,33.70
2007,07,11,16,17,33.70
2007,07,11,16,18,33.70
2007,07,11,16,19,33.80
2007,07,11,16,20,33.90
2007,07,11,16,21,33.90
2007,07,11,16,22,33.90
2007,07,11,16,23,33.90
2007,07,11,16,24,33.90
2007,07,11,16,25,33.90
2007,07,11,16,26,33.90
2007,07,11,16,27,34.00
2007,07,11,16,28,34.10
2007,07,11,16,29,34.00
2007,07,11,16,30,34.00
2007,07,11,16,31,34.00
2007,07,11,16,32,34.00
2007,07,11,16,33,33.90
2007,07,11,16,34,33.90
2007,07,11,16,35,33.90
2007,07,11,16,36,33.80
2007,07,11,16,37,33.80
2007,07,11,16,38,33.80
2007,07,11,16,39,33.70
2007,07,11,16,40,33.60
2007,07,11,16,41,33.60
2007,07,11,16,42,33.60
2007,07,11,16,43,33.60
2007,07,11,16,44,33.60
2007,07,11,16,45,33.60
2007,07,11,16,46,33.60
2007,07,11,16,47,33.60
2007,07,11,16,48,33.60
2007,07,11,16,49,33.70
2007,07,11,16,50,33.70
2007,07,11,16,51,33.70
2007,07,11,16,52,33.70
2007,07,11,16,53,33.70
2007,07,11,16,54,33.60
2007,07,11,16,55,33.60
2007,07,11,16,56,33.50
2007,07,11,16,57,33.50
2007,07,11,16,58,33.50
2007,07,11,16,59,33.50
2007,07,11,17,00,33.50
2007,07,11,17,01,33.40
2007,07,11,17,02,33.30
2007,07,11,17,03,33.20
2007,07,11,17,04,33.20
2007,07,11,17,05,33.10
2007,07,11,17,06,33.10
2007,07,11,17,07,33.10
2007,07,11,17,08,33.10
2007,07,11,17,09,33.10
2007,07,11,17,10,33.10
2007,07,11,17,11,33.10
2007,07,11,17,12,33.10
2007,07,11,17,13,33.10
2007,07,11,17,14,33.20
2007,07,11,17,15,33.20
2007,07,11,17,16,33.20
2007,07,11,17,17,33.20
2007,07,11,17,18,33.20
2007,07,11,17,19,33.20